Total_Precipitation_Accumulation
0.33 0.36 0.39 0.38 0.33 0.31 0.35 0.40 0.44 0.54 0.65 0.87 1.19 1.62 1.84 1.97 1.99 2.01 1.91 1.70 1.48 1.50 1.66 1.63 1.61 1.63 1.61 1.57 1.51 1.64 1.58 1.31 1.21 1.40 1.36 1.21 1.04 0.99 0.98 0.99 1.12 1.21 1.20
0.28 0.24 0.26 0.28 0.24 0.21 0.21 0.30 0.36 0.45 0.58 0.86 1.18 1.53 1.89 1.97 2.00 2.01 1.97 1.84 1.72 1.73 1.77 1.97 2.07 2.05 2.15 2.12 1.93 2.07 2.07 1.70 1.46 1.68 1.96 1.69 1.47 1.09 0.98 1.02 1.05 1.17 1.30
0.24 0.22 0.20 0.20 0.20 0.18 0.16 0.21 0.26 0.40 0.69 1.02 1.34 1.53 1.83 1.96 2.02 1.99 2.00 2.02 1.97 1.88 1.90 2.01 2.18 2.21 2.27 2.35 2.42 2.37 2.46 2.23 1.85 1.74 2.01 1.88 1.75 1.54 1.13 1.03 1.12 1.26 1.36
0.24 0.22 0.21 0.17 0.15 0.15 0.14 0.17 0.24 0.43 0.77 1.10 1.36 1.59 1.94 2.06 2.04 2.07 2.08 2.08 2.11 2.07 2.14 2.16 2.26 2.30 2.32 2.41 2.51 2.46 2.59 2.64 2.26 2.00 1.78 1.60 1.60 1.71 1.47 1.21 1.16 1.32 1.38
0.23 0.19 0.17 0.16 0.15 0.16 0.17 0.22 0.36 0.56 0.82 1.02 1.26 1.62 1.87 1.99 2.15 2.10 2.08 2.09 2.16 2.18 2.22 2.28 2.44 2.43 2.40 2.38 2.59 2.64 2.72 2.64 2.56 2.41 2.24 2.08 1.83 1.49 1.57 1.57 1.40 1.30 1.22
0.24 0.22 0.20 0.19 0.20 0.23 0.28 0.36 0.51 0.66 0.88 1.06 1.25 1.43 1.69 1.83 1.98 2.08 2.02 2.03 2.11 2.21 2.10 2.03 2.17 2.24 2.27 2.25 2.43 2.61 2.74 2.73 2.75 2.65 2.36 2.30 2.16 1.81 1.74 1.60 1.48 1.47 1.28
0.29 0.34 0.34 0.37 0.43 0.48 0.50 0.59 0.68 0.78 0.91 1.01 1.11 1.17 1.32 1.49 1.55 1.72 1.81 1.95 1.97 2.03 2.06 1.96 1.95 1.98 1.93 1.98 2.09 2.16 2.24 2.38 2.54 2.44 2.23 2.18 2.03 2.01 2.01 1.88 1.64 1.45 1.24
0.46 0.56 0.64 0.71 0.77 0.78 0.76 0.83 0.89 0.88 0.86 0.91 0.97 1.00 1.06 1.14 1.22 1.27 1.32 1.51 1.68 1.72 1.80 1.81 1.75 1.79 1.84 1.85 1.92 1.93 1.94 1.97 2.04 2.04 2.12 2.17 2.04 1.97 1.89 1.88 2.02 1.78 1.53
0.75 0.85 0.94 0.95 0.94 0.92 0.87 0.88 0.91 0.89 0.87 0.88 0.86 0.82 0.81 0.88 0.99 1.01 1.09 1.16 1.26 1.28 1.34 1.44 1.52 1.61 1.66 1.72 1.86 1.93 1.92 1.87 1.84 1.95 2.01 1.95 1.94 1.91 1.80 1.77 1.88 1.95 1.81
1.10 1.23 1.30 1.21 1.12 1.11 1.15 1.04 0.95 0.88 0.84 0.84 0.84 0.77 0.73 0.79 0.83 0.83 0.90 0.89 0.91 0.94 1.00 1.11 1.28 1.50 1.63 1.67 1.74 1.79 1.87 1.90 1.86 1.93 2.02 2.03 2.04 2.07 1.99 1.86 1.82 1.76 1.80
1.49 1.58 1.59 1.47 1.27 1.13 1.11 1.06 0.95 0.83 0.73 0.72 0.77 0.77 0.72 0.73 0.78 0.78 0.73 0.67 0.70 0.78 0.89 0.95 1.09 1.25 1.43 1.61 1.76 1.77 1.77 1.81 1.79 1.73 1.81 1.92 2.03 2.16 2.17 2.15 2.02 1.87 1.83
1.37 1.40 1.34 1.33 1.22 1.12 1.03 0.97 0.86 0.72 0.67 0.71 0.74 0.76 0.68 0.62 0.65 0.66 0.68 0.59 0.56 0.62 0.71 0.84 1.05 1.16 1.25 1.30 1.38 1.46 1.50 1.53 1.58 1.56 1.54 1.62 1.73 1.88 2.03 2.10 2.05 2.04 1.95
1.03 1.12 1.16 1.07 1.02 0.95 0.90 0.97 0.96 0.84 0.82 0.85 0.91 0.84 0.71 0.67 0.65 0.61 0.64 0.59 0.56 0.61 0.66 0.80 0.95 1.01 1.06 1.10 1.12 1.22 1.31 1.32 1.30 1.35 1.32 1.34 1.44 1.58 1.72 1.80 1.87 1.99 2.03
0.85 0.89 0.94 0.90 0.91 0.84 0.82 0.91 0.96 0.96 1.03 1.10 1.07 0.90 0.78 0.70 0.64 0.60 0.56 0.57 0.59 0.62 0.69 0.84 0.94 0.95 0.91 1.00 1.03 1.08 1.12 1.09 1.04 1.08 1.09 1.14 1.18 1.26 1.38 1.52 1.73 1.93 2.04
0.62 0.60 0.57 0.58 0.63 0.64 0.62 0.66 0.73 0.84 0.98 1.06 0.95 0.81 0.68 0.58 0.53 0.56 0.53 0.54 0.61 0.64 0.71 0.76 0.87 0.92 0.90 0.93 0.99 0.98 0.93 0.92 0.92 0.88 0.79 0.81 0.87 0.88 0.96 1.02 1.30 1.56 1.79
0.37 0.35 0.31 0.29 0.33 0.34 0.36 0.40 0.48 0.63 0.86 0.94 0.82 0.65 0.57 0.54 0.49 0.48 0.45 0.44 0.47 0.53 0.58 0.64 0.80 0.91 0.82 0.93 0.92 0.85 0.78 0.75 0.79 0.77 0.70 0.68 0.72 0.63 0.60 0.63 0.85 1.15 1.36
0.27 0.27 0.24 0.21 0.22 0.21 0.24 0.32 0.38 0.51 0.62 0.66 0.60 0.48 0.42 0.40 0.39 0.38 0.38 0.41 0.43 0.47 0.52 0.56 0.73 0.83 0.91 0.85 0.70 0.74 0.74 0.74 0.77 0.79 0.81 0.74 0.69 0.77 0.68 0.62 0.69 0.78 0.89
0.24 0.24 0.24 0.23 0.24 0.26 0.27 0.36 0.40 0.42 0.47 0.54 0.53 0.45 0.40 0.37 0.36 0.35 0.36 0.44 0.45 0.44 0.49 0.55 0.59 0.67 0.80 0.74 0.59 0.63 0.63 0.74 0.81 0.84 0.93 0.94 0.88 0.85 0.93 0.88 0.89 0.85 0.78
0.15 0.15 0.15 0.14 0.14 0.14 0.14 0.16 0.20 0.25 0.28 0.31 0.36 0.35 0.30 0.31 0.34 0.34 0.40 0.44 0.44 0.48 0.50 0.55 0.58 0.64 0.68 0.64 0.57 0.60 0.67 0.80 0.82 0.79 0.90 0.94 0.88 0.92 0.98 1.11 1.17 1.10 0.94
0.05 0.05 0.05 0.05 0.05 0.04 0.04 0.05 0.06 0.07 0.09 0.10 0.15 0.19 0.20 0.23 0.29 0.38 0.44 0.42 0.41 0.47 0.48 0.47 0.47 0.52 0.55 0.60 0.50 0.61 0.73 0.78 0.80 0.81 0.87 1.01 0.93 0.90 0.88 0.97 1.12 1.11 0.98
0.02 0.01 0.02 0.02 0.02 0.02 0.03 0.03 0.04 0.03 0.03 0.03 0.04 0.07 0.12 0.17 0.26 0.33 0.32 0.33 0.36 0.40 0.41 0.44 0.44 0.45 0.52 0.63 0.64 0.70 0.72 0.77 0.84 0.93 0.98 0.95 1.03 0.86 0.83 0.84 0.86 0.95 0.94
0.01 0.01 0.01 0.01 0.01 0.01 0.01 0.02 0.02 0.01 0.01 0.01 0.01 0.02 0.05 0.07 0.13 0.20 0.23 0.26 0.30 0.32 0.32 0.33 0.34 0.38 0.49 0.57 0.59 0.62 0.67 0.75 0.76 0.82 0.82 0.78 0.86 0.72 0.64 0.60 0.66 0.74 0.80
0.00 0.00 0.01 0.01 0.01 0.00 0.00 0.00 0.01 0.01 0.01 0.01 0.01 0.01 0.01 0.02 0.06 0.12 0.17 0.21 0.27 0.30 0.28 0.27 0.29 0.33 0.37 0.45 0.49 0.49 0.49 0.52 0.56 0.54 0.62 0.63 0.62 0.58 0.51 0.56 0.60 0.63 0.66
0.00 0.01 0.01 0.01 0.01 0.01 0.01 0.01 0.01 0.01 0.01 0.01 0.01 0.01 0.01 0.02 0.03 0.06 0.13 0.22 0.24 0.23 0.24 0.26 0.29 0.32 0.35 0.36 0.37 0.41 0.41 0.41 0.46 0.45 0.47 0.48 0.47 0.49 0.50 0.53 0.57 0.63 0.67
0.00 0.01 0.01 0.01 0.01 0.01 0.01 0.01 0.01 0.01 0.01 0.01 0.01 0.01 0.01 0.02 0.02 0.03 0.07 0.14 0.16 0.16 0.19 0.24 0.28 0.33 0.36 0.33 0.29 0.30 0.37 0.43 0.48 0.55 0.50 0.47 0.47 0.50 0.56 0.59 0.58 0.61 0.66
0.01 0.00 0.01 0.02 0.02 0.01 0.01 0.01 0.01 0.01 0.01 0.02 0.01 0.01 0.01 0.02 0.02 0.03 0.04 0.07 0.07 0.09 0.10 0.11 0.15 0.15 0.15 0.16 0.16 0.18 0.24 0.31 0.38 0.53 0.61 0.63 0.68 0.71 0.70 0.68 0.60 0.55 0.56